SWR1583 LSZH-LSGG

Flight info

Callsign SWR1583
Flight time N/A
Altitude 18000
Route VEBIT T50 ROTOS Z669 ULMES
Aircraft A343/H-SDE2E3FGHIJ4J5M1RWXY/LB1D1

Departure

Time 2026-05-07 17:15
Airport Zürich Airport (LSZH)

Arrival

Time N/A
Airport Geneva International Airport (LSGG)
Time Latitude Longitude Altitude Speed Heading
2026-05-07 16:34 47.46062 8.55434 1409 ft 0 kts
2026-05-07 17:03 47.46060 8.55433 1402 ft 2 kts
2026-05-07 17:03 47.46035 8.55428 1404 ft 4 kts 12°
2026-05-07 17:03 47.46009 8.55418 1408 ft 4 kts 22°
2026-05-07 17:04 47.45985 8.55399 1412 ft 4 kts 44°
2026-05-07 17:04 47.45974 8.55372 1412 ft 2 kts 95°
2026-05-07 17:04 47.45974 8.55371 1412 ft 1 kts 96°
2026-05-07 17:07 47.45974 8.55376 1412 ft 1 kts 96°
2026-05-07 17:08 47.45973 8.55390 1402 ft 2 kts 96°
2026-05-07 17:08 47.45971 8.55414 1410 ft 3 kts 96°
2026-05-07 17:08 47.45969 8.55448 1407 ft 4 kts 96°
2026-05-07 17:08 47.45966 8.55492 1410 ft 5 kts 96°
2026-05-07 17:09 47.45962 8.55545 1413 ft 6 kts 96°
2026-05-07 17:09 47.45958 8.55607 1408 ft 6 kts 96°
2026-05-07 17:09 47.45953 8.55676 1406 ft 7 kts 96°
2026-05-07 17:09 47.45948 8.55751 1413 ft 8 kts 96°
2026-05-07 17:10 47.45942 8.55833 1410 ft 8 kts 98°
2026-05-07 17:10 47.45924 8.55908 1415 ft 6 kts 136°
2026-05-07 17:10 47.45887 8.55919 1417 ft 4 kts 182°
2026-05-07 17:10 47.45864 8.55924 1421 ft 2 kts 159°
2026-05-07 17:11 47.45856 8.55935 1422 ft 1 kts 137°
2026-05-07 17:11 47.45854 8.55941 1422 ft 0 kts 129°
2026-05-07 17:11 47.45848 8.55957 1420 ft 3 kts 117°
2026-05-07 17:11 47.45841 8.56005 1416 ft 6 kts 100°
2026-05-07 17:12 47.45833 8.56088 1422 ft 10 kts 97°
2026-05-07 17:12 47.45826 8.56204 1418 ft 13 kts 95°
2026-05-07 17:12 47.45816 8.56341 1424 ft 14 kts 96°
2026-05-07 17:12 47.45806 8.56487 1422 ft 15 kts 95°
2026-05-07 17:13 47.45795 8.56642 1427 ft 16 kts 96°
2026-05-07 17:13 47.45783 8.56808 1425 ft 16 kts 95°
2026-05-07 17:13 47.45768 8.56966 1428 ft 15 kts 107°
2026-05-07 17:13 47.45695 8.57018 1429 ft 12 kts 201°
2026-05-07 17:14 47.45671 8.56902 1427 ft 14 kts 272°
2026-05-07 17:14 47.45673 8.56854 1426 ft 18 kts 273°
2026-05-07 17:14 47.45711 8.56305 1419 ft 87 kts 278°
2026-05-07 17:14 47.45797 8.55123 1405 ft 142 kts 276°
2026-05-07 17:15 47.45889 8.53521 1784 ft 158 kts 278°
2026-05-07 17:15 47.46052 8.51913 2517 ft 162 kts 280°
2026-05-07 17:15 47.46180 8.50133 2939 ft 188 kts 275°
2026-05-07 17:15 47.45871 8.48124 3367 ft 219 kts 243°
2026-05-07 17:16 47.44951 8.46140 3922 ft 246 kts 234°
2026-05-07 17:16 47.43870 8.44102 4868 ft 255 kts 232°
2026-05-07 17:16 47.42771 8.42010 5912 ft 260 kts 233°
2026-05-07 17:16 47.41674 8.39891 7055 ft 260 kts 233°
2026-05-07 17:17 47.40573 8.37744 8120 ft 263 kts 233°
2026-05-07 17:17 47.39471 8.35573 9180 ft 265 kts 234°
2026-05-07 17:17 47.38488 8.33253 10257 ft 268 kts 241°
2026-05-07 17:17 47.37579 8.30749 10855 ft 287 kts 242°
2026-05-07 17:18 47.36618 8.28037 11256 ft 309 kts 242°
2026-05-07 17:18 47.35600 8.25164 11798 ft 322 kts 242°
2026-05-07 17:18 47.34551 8.22196 12534 ft 329 kts 242°
2026-05-07 17:18 47.33479 8.19178 13343 ft 335 kts 242°
2026-05-07 17:19 47.32389 8.16116 14117 ft 340 kts 242°
2026-05-07 17:19 47.31282 8.13007 14854 ft 345 kts 242°
2026-05-07 17:19 47.30166 8.09863 15607 ft 349 kts 242°
2026-05-07 17:19 47.29034 8.06683 16381 ft 352 kts 242°
2026-05-07 17:20 47.27887 8.03468 17124 ft 357 kts 242°
2026-05-07 17:20 47.26756 8.00187 17733 ft 362 kts 244°
2026-05-07 17:20 47.25714 7.96803 17998 ft 365 kts 246°
2026-05-07 17:20 47.24723 7.93313 18004 ft 372 kts 248°
2026-05-07 17:21 47.23755 7.89772 18006 ft 374 kts 248°
2026-05-07 17:21 47.23524 7.88920 18005 ft 374 kts 248°
2026-05-07 17:35 47.22672 7.85782 18005 ft 374 kts 248°
2026-05-07 17:35 47.21688 7.82182 18008 ft 374 kts 248°
2026-05-07 17:35 47.20710 7.78643 18008 ft 374 kts 248°
2026-05-07 17:36 47.19713 7.75119 18004 ft 374 kts 245°
2026-05-07 17:36 47.18429 7.71796 18006 ft 374 kts 237°
2026-05-07 17:36 47.16940 7.68661 18003 ft 374 kts 234°
2026-05-07 17:36 47.15369 7.65616 18007 ft 374 kts 232°
2026-05-07 17:37 47.13754 7.62619 18000 ft 374 kts 232°
2026-05-07 17:37 47.12122 7.59648 18000 ft 374 kts 232°
2026-05-07 17:37 47.10485 7.56677 18009 ft 374 kts 232°
2026-05-07 17:37 47.08856 7.53711 18007 ft 374 kts 232°
2026-05-07 17:38 47.07229 7.50737 18004 ft 373 kts 232°
2026-05-07 17:38 47.05630 7.47803 17996 ft 373 kts 232°
2026-05-07 17:38 47.04014 7.44832 17997 ft 373 kts 232°
2026-05-07 17:38 47.02921 7.42821 17996 ft 373 kts 232°
2026-05-07 17:39 47.00779 7.38883 17998 ft 373 kts 232°
2026-05-07 17:39 46.99150 7.35911 17996 ft 374 kts 232°
2026-05-07 17:39 46.97522 7.32946 17995 ft 374 kts 232°
2026-05-07 17:39 46.95894 7.29981 17995 ft 374 kts 232°
2026-05-07 17:40 46.94795 7.27981 17989 ft 374 kts 232°
2026-05-07 17:40 46.93168 7.25015 17931 ft 374 kts 232°
2026-05-07 17:40 46.91557 7.22078 17677 ft 366 kts 232°
2026-05-07 17:40 46.89976 7.19198 17434 ft 361 kts 232°
2026-05-07 17:41 46.88408 7.16342 17160 ft 360 kts 232°
2026-05-07 17:41 46.86864 7.13536 16915 ft 359 kts 232°
2026-05-07 17:41 46.85302 7.10699 16661 ft 357 kts 232°
2026-05-07 17:41 46.83747 7.07879 16399 ft 356 kts 232°
2026-05-07 17:42 46.82199 7.05073 16144 ft 354 kts 232°
2026-05-07 17:42 46.80657 7.02281 15894 ft 353 kts 232°
2026-05-07 17:42 46.79122 6.99497 15641 ft 351 kts 232°
2026-05-07 17:42 46.77591 6.96727 15390 ft 350 kts 232°
2026-05-07 17:43 46.76066 6.93975 15144 ft 348 kts 232°
2026-05-07 17:43 46.74547 6.91237 14901 ft 347 kts 232°
2026-05-07 17:43 46.73028 6.88500 14653 ft 346 kts 232°
2026-05-07 17:43 46.71515 6.85776 14411 ft 345 kts 232°
2026-05-07 17:44 46.70008 6.83064 14170 ft 344 kts 232°
2026-05-07 17:44 46.68502 6.80356 13920 ft 343 kts 232°
2026-05-07 17:44 46.67002 6.77661 13676 ft 341 kts 232°
2026-05-07 17:44 46.65652 6.74831 13414 ft 340 kts 242°
2026-05-07 17:45 46.64651 6.71726 13142 ft 339 kts 247°